Time,TemperatureF,DewpointF,PressureIn,WindDirection,WindDirectionDegrees,WindSpeedMPH,WindSpeedGustMPH,Humidity,HourlyPrecipIn,Conditions,Clouds,dailyrainin,SoftwareType,DateUTC
2013-01-21 09:47:00,47.9,26.5,30.05,East,86,2.3,0.0,43,0.00,CLR,,0.00,WeatherDisplay:10.37,2013-01-21 14:47:00,
2013-01-21 09:52:00,47.8,27.5,30.05,ENE,65,3.5,3.5,45,0.00,CLR,,0.00,WeatherDisplay:10.37,2013-01-21 14:52:00,
2013-01-21 09:57:00,47.9,27.6,30.05,WSW,252,5.8,5.8,45,0.00,CLR,,0.00,WeatherDisplay:10.37,2013-01-21 14:57:00,
2013-01-21 10:02:00,48.3,27.4,30.05,WNW,289,3.5,3.5,44,0.00,CLR,,0.00,WeatherDisplay:10.37,2013-01-21 15:02:00,
2013-01-21 10:07:00,48.9,27.9,30.05,East,89,2.3,2.3,44,0.00,CLR,,0.00,WeatherDisplay:10.37,2013-01-21 15:07:00,
2013-01-21 10:12:00,49.2,27.1,30.04,WNW,302,2.3,2.3,42,0.00,CLR,,0.00,WeatherDisplay:10.37,2013-01-21 15:12:00,
2013-01-21 10:17:00,49.2,27.6,30.04,WNW,298,3.5,3.5,43,0.00,CLR,,0.00,WeatherDisplay:10.37,2013-01-21 15:17:00,
2013-01-21 10:22:00,49.3,27.2,30.04,West,271,5.8,5.8,42,0.00,CLR,,0.00,WeatherDisplay:10.37,2013-01-21 15:22:00,
2013-01-21 10:27:00,49.6,28.0,30.04,SE,127,2.3,2.3,43,0.00,CLR,,0.00,WeatherDisplay:10.37,2013-01-21 15:27:00,
2013-01-21 10:32:00,49.9,28.3,30.04,East,97,4.0,4.0,43,0.00,CLR,,0.00,WeatherDisplay:10.37,2013-01-21 15:32:00,
2013-01-21 10:37:00,49.9,27.7,30.04,ENE,64,4.6,4.6,42,0.00,CLR,,0.00,WeatherDisplay:10.37,2013-01-21 15:37:00,
2013-01-21 10:42:00,49.8,27.6,30.04,West,267,3.5,3.5,42,0.00,CLR,,0.00,WeatherDisplay:10.37,2013-01-21 15:42:00,
2013-01-21 10:47:00,50.3,28.6,30.04,SSW,203,5.0,5.0,43,0.00,CLR,,0.00,WeatherDisplay:10.37,2013-01-21 15:47:00,
2013-01-21 10:52:00,50.5,29.4,30.04,ESE,115,2.3,2.3,44,0.00,CLR,,0.00,WeatherDisplay:10.37,2013-01-21 15:52:00,
2013-01-21 10:57:00,51.0,28.7,30.04,ESE,117,3.5,3.5,42,0.00,CLR,,0.00,WeatherDisplay:10.37,2013-01-21 15:57:00,
2013-01-21 11:02:00,51.2,27.7,30.04,ENE,68,1.1,1.1,40,0.00,CLR,,0.00,WeatherDisplay:10.37,2013-01-21 16:02:00,
2013-01-21 11:07:00,51.6,28.0,30.04,ENE,75,3.5,3.5,40,0.00,CLR,,0.00,WeatherDisplay:10.37,2013-01-21 16:07:00,
2013-01-21 11:12:00,51.8,28.2,30.03,East,101,2.0,2.0,40,0.00,CLR,,0.00,WeatherDisplay:10.37,2013-01-21 16:12:00,
2013-01-21 11:17:00,51.9,27.7,30.03,SE,124,1.1,1.1,39,0.00,CLR,,0.00,WeatherDisplay:10.37,2013-01-21 16:17:00,
2013-01-21 11:22:00,52.0,27.1,30.02,ENE,72,2.0,2.0,38,0.00,CLR,,0.00,WeatherDisplay:10.37,2013-01-21 16:22:00,
2013-01-21 11:27:00,52.2,28.6,30.02,East,84,2.3,2.3,40,0.00,CLR,,0.00,WeatherDisplay:10.37,2013-01-21 16:27:00,
2013-01-21 11:32:00,52.8,27.9,30.01,NNW,348,3.5,3.5,38,0.00,CLR,,0.00,WeatherDisplay:10.37,2013-01-21 16:32:00,
2013-01-21 11:38:00,52.6,27.7,30.01,NE,39,2.3,2.3,38,0.00,CLR,,0.00,WeatherDisplay:10.37,2013-01-21 16:38:00,
2013-01-21 11:43:00,53.0,27.4,30.00,WNW,291,2.3,2.3,37,0.00,CLR,,0.00,WeatherDisplay:10.37,2013-01-21 16:43:00,
2013-01-21 11:48:00,53.3,27.7,30.00,WSW,255,1.1,1.1,37,0.00,CLR,,0.00,WeatherDisplay:10.37,2013-01-21 16:48:00,
2013-01-21 11:53:00,53.7,27.4,30.00,East,86,3.5,3.5,36,0.00,CLR,,0.00,WeatherDisplay:10.37,2013-01-21 16:53:00,
2013-01-21 11:58:00,53.9,27.5,29.99,West,278,3.5,3.5,36,0.00,CLR,,0.00,WeatherDisplay:10.37,2013-01-21 16:58:00,
2013-01-21 12:03:00,53.9,27.5,29.99,NE,36,1.1,1.1,36,0.00,CLR,,0.00,WeatherDisplay:10.37,2013-01-21 17:03:00,
2013-01-21 12:08:00,54.3,27.9,29.99,WSW,246,1.1,1.1,36,0.00,CLR,,0.00,WeatherDisplay:10.37,2013-01-21 17:08:00,
2013-01-21 12:13:00,54.8,28.3,29.98,SW,228,1.1,1.1,36,0.00,CLR,,0.00,WeatherDisplay:10.37,2013-01-21 17:13:00,
2013-01-21 12:18:00,55.1,27.9,29.98,East,80,8.1,8.1,35,0.00,CLR,,0.00,WeatherDisplay:10.37,2013-01-21 17:18:00,
2013-01-21 12:23:00,54.9,28.4,29.97,SSE,167,0.0,0.0,36,0.00,CLR,,0.00,WeatherDisplay:10.37,2013-01-21 17:23:00,
2013-01-21 12:28:00,55.5,29.0,29.97,ESE,107,3.5,3.5,36,0.00,CLR,,0.00,WeatherDisplay:10.37,2013-01-21 17:28:00,
2013-01-21 12:33:00,56.0,29.4,29.96,SE,139,1.1,1.1,36,0.00,CLR,,0.00,WeatherDisplay:10.37,2013-01-21 17:33:00,
2013-01-21 12:38:00,56.3,27.5,29.96,SW,235,1.1,1.1,33,0.00,CLR,,0.00,WeatherDisplay:10.37,2013-01-21 17:38:00,
2013-01-21 12:43:00,56.1,27.4,29.96,WNW,284,3.5,3.5,33,0.00,CLR,,0.00,WeatherDisplay:10.37,2013-01-21 17:43:00,
2013-01-21 12:48:00,56.3,28.3,29.95,SW,218,2.3,2.3,34,0.00,CLR,,0.00,WeatherDisplay:10.37,2013-01-21 17:48:00,
2013-01-21 12:53:00,56.7,27.9,29.95,WSW,252,2.3,2.3,33,0.00,CLR,,0.00,WeatherDisplay:10.37,2013-01-21 17:53:00,
2013-01-21 12:58:00,56.9,28.1,29.95,WSW,256,2.3,2.3,33,0.00,CLR,,0.00,WeatherDisplay:10.37,2013-01-21 17:58:00,
2013-01-21 13:03:00,56.4,27.6,29.95,NW,314,3.5,3.5,33,0.00,CLR,,0.00,WeatherDisplay:10.37,2013-01-21 18:03:00,
2013-01-21 13:08:00,56.8,27.2,29.95,WNW,286,4.6,4.6,32,0.00,CLR,,0.00,WeatherDisplay:10.37,2013-01-21 18:08:00,
2013-01-21 13:13:00,57.2,26.8,29.94,ESE,102,4.6,4.6,31,0.00,CLR,,0.00,WeatherDisplay:10.37,2013-01-21 18:13:00,
2013-01-21 13:18:00,57.6,27.2,29.94,West,264,4.6,4.6,31,0.00,CLR,,0.00,WeatherDisplay:10.37,2013-01-21 18:18:00,
2013-01-21 13:23:00,57.0,25.0,29.93,West,270,4.6,4.6,29,0.00,CLR,,0.00,WeatherDisplay:10.37,2013-01-21 18:23:00,
2013-01-21 13:28:00,57.2,26.8,29.92,WSW,250,1.1,1.1,31,0.00,CLR,,0.00,WeatherDisplay:10.37,2013-01-21 18:28:00,
2013-01-21 13:33:00,57.5,27.1,29.92,NW,325,3.5,3.5,31,0.00,CLR,,0.00,WeatherDisplay:10.37,2013-01-21 18:33:00,
2013-01-21 13:38:00,57.9,25.8,29.92,SW,228,2.3,2.3,29,0.00,CLR,,0.00,WeatherDisplay:10.37,2013-01-21 18:38:00,
2013-01-21 13:43:00,58.2,26.1,29.92,WSW,238,4.0,5.2,29,0.00,CLR,,0.00,WeatherDisplay:10.37,2013-01-21 18:43:00,
2013-01-21 13:48:00,58.4,27.1,29.92,WSW,255,3.5,3.5,30,0.00,CLR,,0.00,WeatherDisplay:10.37,2013-01-21 18:48:00,
2013-01-21 13:53:00,58.4,26.2,29.91,West,281,6.9,6.9,29,0.00,CLR,,0.00,WeatherDisplay:10.37,2013-01-21 18:53:00,
2013-01-21 13:58:00,58.1,26.0,29.91,SW,225,6.9,6.9,29,0.00,CLR,,0.00,WeatherDisplay:10.37,2013-01-21 18:58:00,
2013-01-21 14:03:00,58.1,26.8,29.91,East,84,3.5,3.5,30,0.00,CLR,,0.00,WeatherDisplay:10.37,2013-01-21 19:03:00,
2013-01-21 14:08:00,58.0,27.5,29.91,West,273,10.4,10.4,31,0.00,CLR,,0.00,WeatherDisplay:10.37,2013-01-21 19:08:00,
2013-01-21 14:13:00,57.9,27.4,29.90,SE,143,6.9,6.9,31,0.00,CLR,,0.00,WeatherDisplay:10.37,2013-01-21 19:13:00,
2013-01-21 14:18:00,57.8,28.9,29.90,WSW,238,5.0,5.0,33,0.00,CLR,,0.00,WeatherDisplay:10.37,2013-01-21 19:18:00,
2013-01-21 14:23:00,57.9,28.9,29.90,WNW,298,1.1,1.1,33,0.00,CLR,,0.00,WeatherDisplay:10.37,2013-01-21 19:23:00,
2013-01-21 14:28:00,58.3,29.3,29.90,SE,143,5.8,5.8,33,0.00,CLR,,0.00,WeatherDisplay:10.37,2013-01-21 19:28:00,
2013-01-21 14:33:00,58.6,30.3,29.90,NW,308,2.3,2.3,34,0.00,CLR,,0.00,WeatherDisplay:10.37,2013-01-21 19:33:00,
2013-01-21 14:38:00,59.0,29.9,29.89,WSW,252,4.6,4.6,33,0.00,CLR,,0.00,WeatherDisplay:10.37,2013-01-21 19:38:00,
2013-01-21 14:43:00,58.8,29.7,29.89,WSW,249,5.8,5.8,33,0.00,CLR,,0.00,WeatherDisplay:10.37,2013-01-21 19:43:00,
2013-01-21 14:48:00,58.4,30.1,29.89,NE,44,5.8,5.8,34,0.00,CLR,,0.00,WeatherDisplay:10.37,2013-01-21 19:48:00,
2013-01-21 14:53:00,58.3,30.0,29.88,WSW,250,2.3,2.3,34,0.00,CLR,,0.00,WeatherDisplay:10.37,2013-01-21 19:53:00,
2013-01-21 14:58:00,58.8,30.5,29.88,NW,325,5.8,5.8,34,0.00,CLR,,0.00,WeatherDisplay:10.37,2013-01-21 19:58:00,
2013-01-21 15:03:00,58.6,29.6,29.88,WNW,285,4.6,4.6,33,0.00,CLR,,0.00,WeatherDisplay:10.37,2013-01-21 20:03:00,
2013-01-21 15:08:00,58.9,30.6,29.88,SSW,209,4.0,4.0,34,0.00,CLR,,0.00,WeatherDisplay:10.37,2013-01-21 20:08:00,
2013-01-21 15:13:00,59.1,30.0,29.88,WNW,295,3.5,3.5,33,0.00,CLR,,0.00,WeatherDisplay:10.37,2013-01-21 20:13:00,
2013-01-21 15:18:00,59.1,30.0,29.88,NW,311,5.8,5.8,33,0.00,CLR,,0.00,WeatherDisplay:10.37,2013-01-21 20:18:00,
2013-01-21 15:23:00,59.1,30.0,29.87,SSW,212,4.6,4.6,33,0.00,CLR,,0.00,WeatherDisplay:10.37,2013-01-21 20:23:00,
2013-01-21 15:28:00,59.2,30.8,29.87,WNW,284,4.6,4.6,34,0.00,CLR,,0.00,WeatherDisplay:10.37,2013-01-21 20:28:00,
2013-01-21 15:33:00,59.3,30.9,29.87,West,269,3.0,3.0,34,0.00,CLR,,0.00,WeatherDisplay:10.37,2013-01-21 20:33:00,
2013-01-21 15:38:00,59.5,30.3,29.87,WNW,301,5.8,5.8,33,0.00,CLR,,0.00,WeatherDisplay:10.37,2013-01-21 20:38:00,
2013-01-21 15:43:00,59.5,31.1,29.87,SE,133,10.4,10.4,34,0.00,CLR,,0.00,WeatherDisplay:10.37,2013-01-21 20:43:00,
2013-01-21 15:48:00,59.4,30.3,29.87,WNW,297,6.9,6.9,33,0.00,CLR,,0.00,WeatherDisplay:10.37,2013-01-21 20:48:00,
2013-01-21 15:53:00,59.3,30.2,29.87,West,276,2.3,2.3,33,0.00,CLR,,0.00,WeatherDisplay:10.37,2013-01-21 20:53:00,
2013-01-21 15:58:00,59.4,30.3,29.87,WSW,243,5.8,5.8,33,0.00,CLR,,0.00,WeatherDisplay:10.37,2013-01-21 20:58:00,
2013-01-21 16:03:00,59.3,30.2,29.87,SW,214,6.9,6.9,33,0.00,CLR,,0.00,WeatherDisplay:10.37,2013-01-21 21:03:00,
2013-01-21 16:08:00,59.1,30.7,29.87,SSW,206,2.3,2.3,34,0.00,CLR,,0.00,WeatherDisplay:10.37,2013-01-21 21:08:00,
2013-01-21 16:13:00,59.0,30.6,29.87,West,262,2.3,2.3,34,0.00,CLR,,0.00,WeatherDisplay:10.37,2013-01-21 21:13:00,
2013-01-21 16:18:00,58.6,30.3,29.87,WSW,257,3.5,3.5,34,0.00,CLR,,0.00,WeatherDisplay:10.37,2013-01-21 21:18:00,
2013-01-21 16:23:00,58.6,31.0,29.86,SSW,200,5.8,5.8,35,0.00,CLR,,0.00,WeatherDisplay:10.37,2013-01-21 21:23:00,
2013-01-21 16:28:00,58.6,31.7,29.86,SE,143,2.0,2.0,36,0.00,CLR,,0.00,WeatherDisplay:10.37,2013-01-21 21:28:00,
2013-01-21 16:33:00,58.4,30.8,29.86,NW,308,3.5,3.5,35,0.00,CLR,,0.00,WeatherDisplay:10.37,2013-01-21 21:33:00,
2013-01-21 16:38:00,58.0,31.2,29.86,SW,224,2.0,2.0,36,0.00,CLR,,0.00,WeatherDisplay:10.37,2013-01-21 21:38:00,
2013-01-21 16:43:00,57.9,31.8,29.85,SW,217,3.5,3.5,37,0.00,CLR,,0.00,WeatherDisplay:10.37,2013-01-21 21:43:00,
2013-01-21 16:48:00,57.9,31.8,29.85,SW,232,1.1,1.1,37,0.00,CLR,,0.00,WeatherDisplay:10.37,2013-01-21 21:48:00,
2013-01-21 16:53:00,57.6,31.5,29.85,SE,127,3.5,3.5,37,0.00,CLR,,0.00,WeatherDisplay:10.37,2013-01-21 21:53:00,
2013-01-21 16:58:00,57.2,31.8,29.85,East,91,1.1,1.1,38,0.00,CLR,,0.00,WeatherDisplay:10.37,2013-01-21 21:58:00,
2013-01-21 17:03:00,56.8,32.1,29.85,WSW,242,0.0,0.0,39,0.00,CLR,,0.00,WeatherDisplay:10.37,2013-01-21 22:03:00,
2013-01-21 17:08:00,56.3,32.3,29.85,WSW,242,1.1,0.0,40,0.00,CLR,,0.00,WeatherDisplay:10.37,2013-01-21 22:08:00,
2013-01-21 17:13:00,55.9,32.5,29.85,NNW,347,0.0,0.2,41,0.00,CLR,,0.00,WeatherDisplay:10.37,2013-01-21 22:13:00,
2013-01-21 17:18:00,55.6,32.2,29.85,SW,236,3.5,0.0,41,0.00,CLR,,0.00,WeatherDisplay:10.37,2013-01-21 22:18:00,
2013-01-21 17:23:00,55.1,31.8,29.85,ESE,105,2.3,2.3,41,0.00,CLR,,0.00,WeatherDisplay:10.37,2013-01-21 22:23:00,
2013-01-21 17:28:00,54.8,32.1,29.85,SW,224,0.0,0.0,42,0.00,CLR,,0.00,WeatherDisplay:10.37,2013-01-21 22:28:00,
2013-01-21 17:33:00,54.5,31.9,29.85,South,179,2.3,2.3,42,0.00,CLR,,0.00,WeatherDisplay:10.37,2013-01-21 22:33:00,
2013-01-21 17:38:00,54.4,31.2,29.85,SE,127,1.1,1.1,41,0.00,CLR,,0.00,WeatherDisplay:10.37,2013-01-21 22:38:00,
2013-01-21 17:43:00,54.2,31.6,29.85,NNE,20,3.5,3.5,42,0.00,CLR,,0.00,WeatherDisplay:10.37,2013-01-21 22:43:00,
2013-01-21 17:48:00,54.1,30.9,29.85,SW,218,3.5,3.5,41,0.00,CLR,,0.00,WeatherDisplay:10.37,2013-01-21 22:48:00,
2013-01-21 17:53:00,54.0,30.2,29.85,WSW,246,2.3,2.3,40,0.00,CLR,,0.00,WeatherDisplay:10.37,2013-01-21 22:53:00,
2013-01-21 17:58:00,53.9,30.7,29.85,West,264,3.5,3.5,41,0.00,CLR,,0.00,WeatherDisplay:10.37,2013-01-21 22:58:00,
2013-01-21 18:03:00,53.6,30.4,29.85,West,259,1.1,1.1,41,0.00,CLR,,0.00,WeatherDisplay:10.37,2013-01-21 23:03:00,
2013-01-21 18:08:00,53.2,30.7,29.86,SSW,203,0.0,0.0,42,0.00,CLR,,0.00,WeatherDisplay:10.37,2013-01-21 23:08:00,
2013-01-21 18:13:00,52.9,30.4,29.86,South,176,2.3,2.3,42,0.00,CLR,,0.00,WeatherDisplay:10.37,2013-01-21 23:13:00,
2013-01-21 18:18:00,52.6,30.1,29.86,SSW,203,0.0,0.0,42,0.00,CLR,,0.00,WeatherDisplay:10.37,2013-01-21 23:18:00,
2013-01-21 18:23:00,52.3,29.9,29.86,SSW,207,4.6,4.6,42,0.00,CLR,,0.00,WeatherDisplay:10.37,2013-01-21 23:23:00,
2013-01-21 18:28:00,52.1,30.3,29.86,SSW,198,0.0,0.0,43,0.00,CLR,,0.00,WeatherDisplay:10.37,2013-01-21 23:28:00,
2013-01-21 18:33:00,51.8,30.6,29.86,SE,144,1.0,0.0,44,0.00,CLR,,0.00,WeatherDisplay:10.37,2013-01-21 23:33:00,
2013-01-21 18:38:00,51.8,30.6,29.86,SW,228,1.1,1.1,44,0.00,CLR,,0.00,WeatherDisplay:10.37,2013-01-21 23:38:00,
2013-01-21 18:43:00,51.6,30.9,29.86,SE,130,1.1,0.0,45,0.00,CLR,,0.00,WeatherDisplay:10.37,2013-01-21 23:43:00,
2013-01-21 18:48:00,51.6,30.9,29.86,SSW,211,1.1,1.1,45,0.00,CLR,,0.00,WeatherDisplay:10.37,2013-01-21 23:48:00,
2013-01-21 18:53:00,51.4,31.3,29.86,WSW,238,2.3,2.3,46,0.00,CLR,,0.00,WeatherDisplay:10.37,2013-01-21 23:53:00,
2013-01-21 18:58:00,51.4,30.7,29.86,SE,130,2.3,2.3,45,0.00,CLR,,0.00,WeatherDisplay:10.37,2013-01-21 23:58:00,
2013-01-21 19:03:00,51.5,31.4,29.86,ENE,75,1.1,0.0,46,0.00,CLR,,0.00,WeatherDisplay:10.37,2013-01-22 00:03:00,
2013-01-21 19:08:00,51.4,31.3,29.86,SW,222,3.5,3.5,46,0.00,CLR,,0.00,WeatherDisplay:10.37,2013-01-22 00:08:00,
2013-01-21 19:13:00,51.3,31.2,29.86,WSW,257,2.3,2.3,46,0.00,CLR,,0.00,WeatherDisplay:10.37,2013-01-22 00:13:00,
2013-01-21 19:18:00,51.5,31.4,29.86,WNW,296,3.5,0.0,46,0.00,CLR,,0.00,WeatherDisplay:10.37,2013-01-22 00:18:00,
2013-01-21 19:23:00,51.4,31.3,29.86,WSW,239,1.1,1.1,46,0.00,CLR,,0.00,WeatherDisplay:10.37,2013-01-22 00:23:00,
2013-01-21 19:28:00,51.3,31.2,29.86,South,181,5.8,5.8,46,0.00,CLR,,0.00,WeatherDisplay:10.37,2013-01-22 00:28:00,
2013-01-21 19:33:00,51.2,31.6,29.87,WNW,302,3.5,3.5,47,0.00,CLR,,0.00,WeatherDisplay:10.37,2013-01-22 00:33:00,
2013-01-21 19:38:00,50.9,31.9,29.88,West,267,3.0,3.0,48,0.00,CLR,,0.00,WeatherDisplay:10.37,2013-01-22 00:38:00,
2013-01-21 19:43:00,50.7,31.7,29.88,SW,218,5.8,5.8,48,0.00,CLR,,0.00,WeatherDisplay:10.37,2013-01-22 00:43:00,
2013-01-21 19:48:00,50.7,32.2,29.89,North,350,3.5,3.5,49,0.00,CLR,,0.00,WeatherDisplay:10.37,2013-01-22 00:48:00,
2013-01-21 19:53:00,50.6,32.1,29.89,West,274,1.1,1.1,49,0.00,CLR,,0.00,WeatherDisplay:10.37,2013-01-22 00:53:00,
2013-01-21 19:58:00,50.3,31.8,29.89,ESE,110,1.1,0.0,49,0.00,CLR,,0.00,WeatherDisplay:10.37,2013-01-22 00:58:00,
2013-01-21 20:03:00,49.9,32.0,29.89,SW,231,1.1,0.0,50,0.00,CLR,,0.00,WeatherDisplay:10.37,2013-01-22 01:03:00,
2013-01-21 20:08:00,49.5,32.1,29.89,SW,231,0.0,0.0,51,0.00,CLR,,0.00,WeatherDisplay:10.37,2013-01-22 01:08:00,
2013-01-21 20:13:00,49.0,31.6,29.89,SSW,195,0.0,0.0,51,0.00,CLR,,0.00,WeatherDisplay:10.37,2013-01-22 01:13:00,
2013-01-21 20:18:00,48.5,31.2,29.89,East,89,1.1,1.1,51,0.00,CLR,,0.00,WeatherDisplay:10.37,2013-01-22 01:18:00,
2013-01-21 20:23:00,48.2,31.4,29.89,ENE,68,1.1,1.1,52,0.00,CLR,,0.00,WeatherDisplay:10.37,2013-01-22 01:23:00,
2013-01-21 20:28:00,47.9,31.6,29.90,ENE,68,0.0,0.0,53,0.00,CLR,,0.00,WeatherDisplay:10.37,2013-01-22 01:28:00,
2013-01-21 20:33:00,47.7,30.4,29.90,NW,312,4.6,4.6,51,0.00,CLR,,0.00,WeatherDisplay:10.37,2013-01-22 01:33:00,
2013-01-21 20:38:00,48.0,28.7,29.90,NW,319,4.6,4.6,47,0.00,CLR,,0.00,WeatherDisplay:10.37,2013-01-22 01:38:00,
2013-01-21 20:43:00,48.6,25.3,29.90,NNW,328,10.4,10.4,40,0.00,CLR,,0.00,WeatherDisplay:10.37,2013-01-22 01:43:00,
2013-01-21 20:48:00,48.8,24.9,29.91,NW,311,7.0,7.0,39,0.00,CLR,,0.00,WeatherDisplay:10.37,2013-01-22 01:48:00,
2013-01-21 20:53:00,48.9,23.1,29.91,NW,326,4.6,4.6,36,0.00,CLR,,0.00,WeatherDisplay:10.37,2013-01-22 01:53:00,
2013-01-21 20:58:00,48.9,23.1,29.91,NE,50,2.0,2.0,36,0.00,CLR,,0.00,WeatherDisplay:10.37,2013-01-22 01:58:00,
2013-01-21 21:03:00,48.7,22.9,29.91,West,279,3.5,3.5,36,0.00,CLR,,0.00,WeatherDisplay:10.37,2013-01-22 02:03:00,
2013-01-21 21:08:00,48.4,22.6,29.91,West,281,2.3,2.3,36,0.00,CLR,,0.00,WeatherDisplay:10.37,2013-01-22 02:08:00,
2013-01-21 21:13:00,48.1,22.4,29.92,WSW,255,1.1,0.0,36,0.00,CLR,,0.00,WeatherDisplay:10.37,2013-01-22 02:13:00,
2013-01-21 21:18:00,47.9,21.5,29.91,NW,304,3.5,3.5,35,0.00,CLR,,0.00,WeatherDisplay:10.37,2013-01-22 02:18:00,
2013-01-21 21:23:00,48.0,20.9,29.92,WSW,238,2.3,2.3,34,0.00,CLR,,0.00,WeatherDisplay:10.37,2013-01-22 02:23:00,
2013-01-21 21:28:00,48.1,20.3,29.92,NW,304,3.5,3.5,33,0.00,CLR,,0.00,WeatherDisplay:10.37,2013-01-22 02:28:00,
2013-01-21 21:33:00,47.9,20.1,29.92,North,354,5.0,5.0,33,0.00,CLR,,0.00,WeatherDisplay:10.37,2013-01-22 02:33:00,
2013-01-21 21:38:00,47.8,19.3,29.92,NW,322,3.5,3.5,32,0.00,CLR,,0.00,WeatherDisplay:10.37,2013-01-22 02:38:00,
2013-01-21 21:43:00,47.6,19.2,29.92,SSW,201,1.1,1.1,32,0.00,CLR,,0.00,WeatherDisplay:10.37,2013-01-22 02:43:00,
2013-01-21 21:48:00,47.3,18.9,29.92,ENE,78,3.5,3.5,32,0.00,CLR,,0.00,WeatherDisplay:10.37,2013-01-22 02:48:00,
2013-01-21 21:53:00,47.0,19.3,29.92,North,4,1.1,1.3,33,0.00,CLR,,0.00,WeatherDisplay:10.37,2013-01-22 02:53:00,
2013-01-21 21:58:00,46.7,19.1,29.92,South,173,1.1,1.1,33,0.00,CLR,,0.00,WeatherDisplay:10.37,2013-01-22 02:58:00,
2013-01-21 22:03:00,46.4,18.8,29.92,NNW,343,3.5,3.5,33,0.00,CLR,,0.00,WeatherDisplay:10.37,2013-01-22 03:03:00,
2013-01-21 22:08:00,46.3,18.7,29.92,NNW,342,3.5,3.5,33,0.00,CLR,,0.00,WeatherDisplay:10.37,2013-01-22 03:08:00,
2013-01-21 22:13:00,46.1,19.2,29.92,ENE,57,1.1,0.0,34,0.00,CLR,,0.00,WeatherDisplay:10.37,2013-01-22 03:13:00,
2013-01-21 22:18:00,45.7,18.9,29.93,WSW,245,1.1,1.1,34,0.00,CLR,,0.00,WeatherDisplay:10.37,2013-01-22 03:18:00,
2013-01-21 22:23:00,45.5,18.7,29.93,NE,37,1.1,1.1,34,0.00,CLR,,0.00,WeatherDisplay:10.37,2013-01-22 03:23:00,
2013-01-21 22:28:00,45.3,18.5,29.93,WSW,255,5.8,5.8,34,0.00,CLR,,0.00,WeatherDisplay:10.37,2013-01-22 03:28:00,
2013-01-21 22:33:00,45.2,19.1,29.93,NNE,27,2.3,2.3,35,0.00,CLR,,0.00,WeatherDisplay:10.37,2013-01-22 03:33:00,
2013-01-21 22:38:00,45.0,19.0,29.93,SW,232,2.3,2.3,35,0.00,CLR,,0.00,WeatherDisplay:10.37,2013-01-22 03:38:00,
2013-01-21 22:43:00,44.9,18.2,29.93,NE,40,1.1,1.1,34,0.00,CLR,,0.00,WeatherDisplay:10.37,2013-01-22 03:43:00,
2013-01-21 22:48:00,44.8,18.8,29.94,SW,218,2.3,2.3,35,0.00,CLR,,0.00,WeatherDisplay:10.37,2013-01-22 03:48:00,
2013-01-21 22:53:00,44.5,18.5,29.93,WSW,257,2.3,2.3,35,0.00,CLR,,0.00,WeatherDisplay:10.37,2013-01-22 03:53:00,
2013-01-21 22:58:00,44.3,18.3,29.93,West,266,1.1,0.0,35,0.00,CLR,,0.00,WeatherDisplay:10.37,2013-01-22 03:58:00,
2013-01-21 23:03:00,44.3,18.3,29.93,West,276,5.8,5.8,35,0.00,CLR,,0.00,WeatherDisplay:10.37,2013-01-22 04:03:00,
2013-01-21 23:08:00,44.2,17.6,29.93,SW,226,3.5,3.5,34,0.00,CLR,,0.00,WeatherDisplay:10.37,2013-01-22 04:08:00,
2013-01-21 23:13:00,44.2,18.2,29.93,NW,312,2.0,2.0,35,0.00,CLR,,0.00,WeatherDisplay:10.37,2013-01-22 04:13:00,
2013-01-21 23:18:00,44.0,18.1,29.93,North,353,3.5,3.5,35,0.00,CLR,,0.00,WeatherDisplay:10.37,2013-01-22 04:18:00,
2013-01-21 23:23:00,43.8,17.9,29.93,NNE,32,2.3,2.3,35,0.00,CLR,,0.00,WeatherDisplay:10.37,2013-01-22 04:23:00,
2013-01-21 23:28:00,43.7,17.8,29.93,NW,317,1.1,0.0,35,0.00,CLR,,0.00,WeatherDisplay:10.37,2013-01-22 04:28:00,
2013-01-21 23:31:00,43.6,18.4,29.93,NW,316,0.0,0.0,36,0.00,CLR,,0.00,WeatherDisplay:10.37,2013-01-22 04:31:00,
2013-01-21 23:36:00,43.5,17.6,29.93,South,191,1.1,1.1,35,0.00,CLR,,0.00,WeatherDisplay:10.37,2013-01-22 04:36:00,
2013-01-21 23:41:00,43.1,17.3,29.93,SW,229,1.1,0.0,35,0.00,CLR,,0.00,WeatherDisplay:10.37,2013-01-22 04:41:00,
2013-01-21 23:46:00,42.9,17.7,29.94,WSW,256,0.0,0.0,36,0.00,CLR,,0.00,WeatherDisplay:10.37,2013-01-22 04:46:00,
2013-01-21 23:51:00,42.6,17.5,29.94,NNE,18,1.0,1.0,36,0.00,CLR,,0.00,WeatherDisplay:10.37,2013-01-22 04:51:00,
2013-01-21 23:56:00,42.4,19.2,29.94,ENE,72,1.1,0.0,39,0.00,CLR,,0.00,WeatherDisplay:10.37,2013-01-22 04:56:00,